Date,TemperatureHighF,TemperatureAvgF,TemperatureLowF,DewpointHighF,DewpointAvgF,DewpointLowF,HumidityHigh,HumidityAvg,HumidityLow,PressureMaxIn,PressureMinIn,WindSpeedMaxMPH,WindSpeedAvgMPH,GustSpeedMaxMPH,PrecipitationSumIn
2013-3-1,67.5,54.9,47.3,47.5,41.0,32.9,89,62,33,30.04,29.92,11,1,13,0.00
2013-3-2,59.0,49.8,41.5,38.8,33.7,24.4,74,56,28,30.06,29.96,13,2,21,0.00
2013-3-3,53.8,43.4,36.0,32.7,31.1,29.5,80,63,43,30.19,30.02,14,1,16,0.00
2013-3-4,66.0,47.4,31.5,40.3,31.0,23.2,93,60,23,30.27,30.14,14,1,14,0.00
2013-3-5,77.4,59.4,40.1,57.0,44.0,37.6,97,62,31,30.22,30.02,9,1,12,0.00
2013-3-6,68.2,59.0,46.8,61.0,39.2,23.2,92,53,19,30.17,29.93,16,2,16,0.00
2013-3-7,66.7,51.4,37.9,47.5,38.9,31.3,92,64,37,30.25,30.15,11,1,12,0.00
2013-3-8,72.9,55.4,41.4,48.2,43.1,33.8,98,69,24,30.26,30.15,15,1,15,0.00
2013-3-9,73.0,58.9,45.5,53.6,49.1,44.1,96,73,43,30.27,30.18,13,1,15,0.00
2013-3-10,78.3,63.9,51.8,57.7,54.5,50.2,97,74,44,30.22,30.12,13,0,13,0.01
2013-3-11,78.1,65.6,52.7,61.3,57.1,51.8,99,76,50,30.16,29.94,13,1,15,0.00
2013-3-12,72.9,66.1,57.6,66.9,62.2,56.1,96,88,77,30.05,29.89,18,2,18,0.10
2013-3-13,73.9,59.2,48.2,55.9,41.7,29.3,95,59,20,30.20,30.05,18,2,19,0.00
2013-3-14,65.1,52.6,43.3,43.3,35.6,27.0,89,55,25,30.30,30.19,16,2,16,0.00
2013-3-15,72.9,53.9,37.6,45.9,38.3,28.2,98,63,24,30.33,30.17,10,1,12,0.00
2013-3-16,80.4,61.7,43.9,52.0,43.2,36.5,97,58,22,30.22,30.06,10,0,11,0.00
2013-3-17,78.3,63.8,48.0,60.3,52.1,41.9,98,69,41,30.18,30.02,13,1,13,0.00
2013-3-18,80.4,71.0,62.2,65.5,62.5,59.0,93,76,56,30.10,29.92,15,1,16,0.01
2013-3-19,88.0,72.5,62.4,64.8,61.8,55.8,96,72,37,30.06,29.91,11,1,14,0.00
2013-3-20,75.9,65.5,56.5,67.6,61.6,55.6,97,88,69,30.01,29.81,16,1,20,0.54
2013-3-21,71.1,57.9,46.6,55.9,41.4,25.7,98,62,20,30.00,29.89,14,1,14,0.01
2013-3-22,78.6,59.1,42.6,60.4,48.7,40.6,98,73,35,30.06,29.94,12,0,12,0.05
2013-3-23,86.2,71.2,61.2,74.1,65.9,60.1,99,85,59,30.02,29.79,10,1,13,0.04
2013-3-24,82.2,72.2,66.4,73.0,68.5,64.2,98,89,71,29.88,29.63,15,1,19,0.13
2013-3-25,71.8,64.1,53.2,64.6,45.2,25.3,95,57,19,30.06,29.73,13,1,14,0.00
2013-3-26,62.2,52.0,42.8,37.9,29.6,19.4,74,44,20,30.27,30.05,15,1,15,0.00
2013-3-27,64.8,49.7,38.7,40.3,32.9,27.1,85,56,25,30.34,30.22,11,1,14,0.00
2013-3-28,70.0,53.8,38.7,43.7,36.7,25.9,93,59,21,30.33,30.21,13,1,15,0.00
2013-3-29,75.6,57.6,40.6,48.7,39.8,30.9,98,60,21,30.37,30.22,10,0,10,0.00
2013-3-30,80.1,62.6,45.0,55.6,48.1,42.4,98,64,32,30.30,30.14,11,1,12,0.00
2013-3-31,83.7,69.3,57.0,57.4,53.2,48.6,89,60,31,30.20,30.01,17,1,18,0.00